Hourly Data Report for April 08, 2021

KUGAARUK CLIMATE
NUNAVUT
Current Station Operator: ECCC - MSC

68°32'15.060" N
89°47'47.020" W
15.80 m
2303094
71407
NBB

Download Data

Hourly Data (April 2021)
Hourly Data Report for April 8, 2021
TIME
LST
Temp Definition
°C
Dew Point Definition
°C
Rel Hum Definition
%
Precip. Amount Definition
mm

Wind Dir Definition
10's deg

Wind Spd Definition
km/h
Visibility Definition
km
Stn Press Definition
kPa
Hmdx Definition


Wind Chill Definition


Weather Definition


00:00 -18.8 -21.5 79 0.0 26 22   102.08   -29 LegendNANA
01:00 -20.6 -23.5 78 0.0 25 21   102.14   -31 LegendNANA
02:00 -22.3 -25.2 77 0.0 26 18   102.17   -33 LegendNANA
03:00 -22.2 -25.1 78 0.0 27 24   102.17   -34 LegendNANA
04:00 -22.0 -25.0 77 0.0 27 30   102.18   -35 LegendNANA
05:00 -22.6 -25.5 77 0.0 23 23   102.24   -35 LegendNANA
06:00 -22.7 -25.9 75 0.0 23 26   102.24   -35 LegendNANA
07:00 -22.8 -26.0 75 0.0 24 26   102.25   -35 LegendNANA
08:00 -21.8 -25.1 75 0.0 25 28   102.24   -35 LegendNANA
09:00 -21.0 -24.6 73 0.0 26 28   102.27   -34 LegendNANA
10:00 -21.5 -25.1 73 0.0 24 24   102.33   -33 LegendNANA
11:00 -20.5 -24.4 71 0.0 23 18   102.31   -31 LegendNANA
12:00 -20.1 -23.8 72 0.0 22 17   102.33   -30 LegendNANA
13:00 -19.5 -23.3 72 0.0 23 19   102.33   -30 LegendNANA
14:00 -19.0 -23.5 68 0.0 25 21   102.33   -29 LegendNANA
15:00 -18.6 -23.3 67 0.0 27 10   102.31   -26 LegendNANA
16:00 -18.5 -23.0 68 0.0 26 10   102.30   -25 LegendNANA
17:00 -19.9 -23.5 73 0.0 24 5   102.31   -24 LegendNANA
18:00 -22.6 -25.8 75 0.0 7 8   102.27   -29 LegendNANA
19:00 -24.1 -26.7 79 0.0 6 16   102.19   -34 LegendNANA
20:00 -23.3 -25.7 81 0.0 6 10   102.14   -31 LegendNANA
21:00 -21.0 -24.3 74 0.0 9 27   102.01   -33 LegendNANA
22:00 -20.1 -23.1 77 0.0 6 20   101.95   -31 LegendNANA
23:00 -17.5 -20.1 80 0.0 15 37   101.83   -30 LegendNANA

Notes on Data Quality.

Legend

  • E = Estimated
  • M = Missing
  • NA = Not Available*
  • [empty] = Indicates an unobserved value
Date modified: